Starlink 33866

operational
NORAD ID: 63653 Int'l Des: 2025-083 Owner: SPXS Country: US Constellation: starlink
LEOCIRCULAR

About Starlink 33866

Description loading...

Live Position

Loading 3D Globe...

Upcoming Passes

Altitude History

Altitude vs Time

uPlot chart will show altitude changes over time

Two-Line Element Set

1 63653U 25083V 25351.62461705 .00011323 00000-0 42028-3 0 9997
2 63653 42.9988 108.8737 0001700 275.4461 84.6197 15.27587120 37548
Epoch: Dec 17, 2025 • Age: 7 hours

Current Status

Altitude 487.1 km
Velocity 7.63 km/s
Sub-Earth Point 42.18°N, 131.45°E
Launch Date Apr 25, 2025
Age 0.6 years
Type internet

Technical Details

Classification Payload
Mass 575.00 kg
Dry Mass 530.00 kg
Total Mass 575.00 kg
Length 0.30 m
Diameter 4.10 m
Span 29.00 m
Shape Box + pan
Manufacturer SPXS
Bus Type Starlink V2MO
Phase Status In Orbit
Owner/State SPXS/US

Large Constellations

Loading constellations...